Regional Weather Roundup
Issued by NWS Burlington, VT

Home | Current Version | Previous Version | Text Only | Print | Product List | Glossary On
Versions: 1 2 3 4 5 6 7 8 9 10 11 12 13 14 15 16 17 18 19 20 21 22 23 24 25 26 27 28 29 30 31 32 33 34 35 36 37 38 39 40 41 42 43 44 45 46 47 48 49 50
000
ASUS41 KBTV 220630
RWRBTV
VERMONT REGIONAL WEATHER ROUNDUP
NATIONAL WEATHER SERVICE BURLINGTON VT
200 AM EDT MON SEP 22 2014

NOTE: "FAIR" INDICATES FEW OR NO CLOUDS BELOW 12,000 FEET WITH NO
SIGNIFICANT WEATHER AND/OR OBSTRUCTIONS TO VISIBILITY.

* THESE REPORTS ARE NOT UNDER NWS QUALITY CONTROL AND/OR DO NOT
  REPORT WEATHER SUCH AS PRECIPITATION AND FOG.

VTZ001>019-220700-
_____VERMONT_____


CITY           SKY/WX    TMP DP  RH WIND       PRES   REMARKS
BURLINGTON     LGT RAIN  63  60  90 S8        29.52F
6HR MIN TEMP:  63; 6HR MAX TEMP:  72; 6HR PCP:  0.34;

MONTPELIER     CLOUDY    61  57  87 SE6       29.56F
6HR MIN TEMP:  59; 6HR MAX TEMP:  69; 6HR PCP:  0.06;

MORRISVILLE    CLOUDY    61  60  97 CALM      29.54F
6HR MIN TEMP:  61; 6HR MAX TEMP:  73; 6HR PCP:  0.36;

ST. JOHNSBURY*   N/A     60  60 100 MISG      29.52F
6HR MIN TEMP:  60; 6HR MAX TEMP:  68; 6HR PCP:  0.30;

MIDDLEBURY*    MOCLDY    59  59 100 S3        29.55S
6HR MIN TEMP:  59; 6HR MAX TEMP:  75; 6HR PCP:  0.03;

RUTLAND*       MOCLDY    59  57  94 CALM      29.58F
6HR MIN TEMP:  61; 6HR MAX TEMP:  72; 6HR PCP:  0.23;

SPRINGFIELD    CLOUDY    64  56  75 CALM      29.57F
6HR MIN TEMP:  63; 6HR MAX TEMP:  68; 6HR PCP: TRACE;

HIGHGATE*      RAIN      61  60  94 S5        29.49F
6HR MIN TEMP:  61; 6HR MAX TEMP:  73;

NEWPORT*       LGT RAIN N/A N/A N/A SE5       29.53F
BENNINGTON     LGT RAIN  57  55  93 SW3       29.62F
6HR MIN TEMP:  57; 6HR MAX TEMP:  72; 6HR PCP:  0.03;

SUTTON*          N/A     57 N/A N/A MISG        N/A
GALLUP MILLS*    N/A     57 N/A N/A MISG        N/A
UNION VILLAGE*   N/A     61 N/A N/A MISG        N/A
MT. MANSFIELD*   N/A     50 N/A N/A NW20        N/A

_____LAKE CHAMPLAIN_____


CITY           SKY/WX    TMP DP  RH WIND       PRES   REMARKS
BURTON ISLAND*   N/A    N/A N/A N/A S9          N/A
COLCHESTER RF*   N/A    N/A N/A N/A S12         N/A
DIAMOND ISL*     N/A     61  59  94 S3          N/A

$$

NYZ007-026>031-035-052-083-220700-
_____NORTHERN NEW YORK_____


CITY           SKY/WX    TMP DP  RH WIND       PRES   REMARKS
PLATTSBURGH    LGT RAIN  62  60  93 S5        29.51F
6HR MIN TEMP:  62; 6HR MAX TEMP:  68; 6HR PCP:  0.05;

SARANAC LAKE   CLOUDY    58  56  93 SW6       29.56S
6HR MIN TEMP:  57; 6HR MAX TEMP:  61;

MASSENA        LGT RAIN  51  50  96 W15       29.61R FOG
6HR MIN TEMP:  52; 6HR MAX TEMP:  66;

OGDENSBURG*    LGT RAIN  50  46  87 NW8       29.64R
POTSDAM*       RAIN      50  50 100 NW7G13    29.62R
PARISHVILLE*     N/A     50 N/A N/A W6          N/A
WATERTOWN      CLOUDY    53  45  74 NW9       29.68R
6HR MIN TEMP:  53; 6HR MAX TEMP:  66;

FT DRUM        CLOUDY    50  47  90 VRB6      29.65R
6HR MIN TEMP:  50; 6HR MAX TEMP:  65;

ALBANY         CLOUDY    60  58  92 CALM      29.63S
6HR MIN TEMP:  60; 6HR MAX TEMP:  75; 6HR PCP:  0.01;

GLENS FALLS    CLOUDY    59  56  89 S6        29.59F
6HR MIN TEMP:  59; 6HR MAX TEMP:  73; 6HR PCP:  0.02;


$$
NHZ002-005-011-220700-
_____NEW HAMPSHIRE_____


CITY           SKY/WX    TMP DP  RH WIND       PRES   REMARKS
LEBANON        CLOUDY    64  56  75 SE5       29.54F
6HR MIN TEMP:  64; 6HR MAX TEMP:  69; 6HR PCP: TRACE;

KEENE          MOCLDY    64  55  72 CALM      29.57F
6HR MIN TEMP:  63; 6HR MAX TEMP:  66;

MT WASHINGTON  LGT RAIN  50  50 100 W39         N/A  VSB 0
6HR MIN TEMP:  48; 6HR MAX TEMP:  53; 6HR PCP:  0.04;

PLYMOUTH       CLOUDY    65  65 100 W12       29.53R FOG
6HR MIN TEMP:  64; 6HR MAX TEMP:  69;

WHITEFIELD     LGT RAIN  62  57  83 VRB5      29.56R
6HR MIN TEMP:  57; 6HR MAX TEMP:  66;


$$

_____REGIONAL QUEBEC LOCATIONS_____


CITY           SKY/WX    TMP DP  RH WIND       PRES   REMARKS
MONTREAL       CLOUDY    57  54  88 SW18G24   29.50F
QUEBEC CITY    LGT RAIN  63  63 100 N2        29.42F VSB 1
SHERBROOKE     LGT RAIN  63  61  94 SW6       29.49F

_____REGIONAL ONTARIO LOCATIONS_____


CITY           SKY/WX    TMP DP  RH WIND       PRES   REMARKS
OTTAWA         CLOUDY    48  46  93 NW16G23   29.62R

______KEY______
VSB  - VISIBILITY IN MILES
WCI  - WIND CHILL INDEX
HX   - HEAT INDEX
$$



USA.gov is the U.S. government's official web portal to all federal, state and local government web resources and services.